Погода в Полоцке

Погода в Полоцке : погода сейчас, прогноз погоды и архив. Всё, что Вы хотите узнать о погоде в Полоцке!

Хотите узнать прогноз погоды в Полоцке? Тогда Вам сюда: Погода в Полоцке

Поиск расширенной информации на нашем сайте:

Другие новости

Новости СМИ2

Главная страница сайта

Новости сайта

03.07.2017

Напоминаем, что на нашем специализированном сайте Метеоцентр.Азия вы можете получить высокодетализированные автоматические прогнозы погоды по пунктам России, СНГ и мира в авиационном формате (включающие направление и скорость ветра, видимость, явления погоды, количество и форму облачности, нижнюю и верхнюю границу облачности).


Погода в Полоцке - сегодня

Время (UTC), дата Ветер
(°,м/с) 
Видим.   Явления Облачность Т
(°С)
Тd
(°С)
f(%) Тe
(°С)
Pmin
(гПа)
dP
(гПа)
Po
(мм)
O2
(г/м3)
Тmin Tmax R s Состояние
почвы
18 11.12.17 160 (Ю) 6000 м  дымка [диам. отлож. мокр. снега 7 мм]  10/10 180 м 
[St]
-1.2 -2.2 93 -1  1005.1  1.1  741  300    -1.1  0.0   
00 12.12.17 130 (ЮВ) 5000 м  дымка{снег} [диам. отлож. мокр. снега 4 мм]  10/10 150 м 
[St]
-0.2 -0.8 96 -1  1005.3  0.3  742  299           
03 12.12.17 140 (ЮВ) 5000 м  дымка [диам. отлож. мокр. снега 1 мм]  10/10 100 м 
[St]
-0.2 -0.8 96 -3  1004.3  -1  741  299      0.0   
06 12.12.17 140 (ЮВ) 6000 м  дымка  10/10 100 м 
[St]
-0.2 -0.8 96 -3  1003.5  -0.8  740  299  -1.2    0.0  равномерный
сухой снег
100% 
09 12.12.17 130 (ЮВ) 6000 м  дымка  10/10 120 м 
[St]
+0.3 -0.5 94 -1  1002  -1.4  739  298           
12 12.12.17 160 (Ю) 6000 м  дымка  10/10 120 м 
[St]
+1.1 -0.3 90 1000.1  -1.8  738  296           
18 12.12.17 180 (Ю) 10 км    9/9 1300 м 
[Sc]
+3.4 +2.1 91 +2  1000.7  0.2  738  294    +3.9     
21 12.12.17 200 (Ю) 8000 м  дымка  4/0 средняя 
[Ac trans]
+3.1 +2.1 93 +2  1002.1  1.4  739  294           
00 13.12.17 190 (Ю) 10 км    5/5 1000 м 
[Sc]
+3.7 +2.2 90 +2  1003  0.9  740  294           
03 13.12.17 210 (ЮЗ) 5-10  10 км    9/9 1140 м 
[Sc]
+2.6 -0.7 79 1005.2  2.1  742  296         
06 13.12.17 190 (Ю) 10 км    6/0 средняя, верхняя 
[Ac trans|Ci fib]
+1.5 -2 78 -1  1007.1  1.8  743  298  +1.1      равномерный
мокрый или
старый снег
100% 
09 13.12.17 230 (ЮЗ) 10 км    10/0 средняя, верхняя 
[Ac trans|Ci fib]
+2.2 -1.8 75 1009.4  2.2  745  298           
12 13.12.17 260 (З) 10 км  в посл. час ливневой снег  9/8 660 м кучево-дожд., средняя 
[Cb cap|Ac trans]
+2 -2 75 +1  1011.1  1.7  746  299           
18 13.12.17 210 (ЮЗ) 10 км    9/9 720 м 
[Sc]
+0.7 -2.9 77 1012.6  0.2  747  301    +2.6  0.0   
21 13.12.17 210 (ЮЗ) 10 км    8/0 средняя 
[Ac trans]
-0.1 -2.8 82 -1  1012.3  -0.4  747  301           
00 14.12.17 180 (Ю) 10 км    ясно 
-2.7 -3.7 93 -4  1011.7  -0.7  746  304           
06 14.12.17 120 (ЮВ) 6000 м  дымка  3/0 верхняя 
[Ci ing]
-4 -4.7 95 -4  1008.5  -1.7  744  305  -4      сухой снег
50-90% 
09 14.12.17 150 (ЮВ) 10 км    6/0 средняя, верхняя 
[Ac trans|Ci ing]
-1.9 -3.7 87 -3  1007.1  -1.2  743  302           
12 14.12.17 110 (В) 15000 м    9/0 средняя 
[Ac und]
-1.2 -3.5 84 -2  1003.5  -3.5  740  300           
15 14.12.17 160 (Ю) 10 км    10/10 240 м 
[St]
-0.4 -2.2 88 -2  1001.4  -2.1  739  298           
18 14.12.17 140 (ЮВ) 5000 м  слаб. снег  10/10 240 м 
[Frnb|Ns]
+0.4 -1.2 89 -1  999.7  -1.6  737  297    +0.6  0.0   
21 14.12.17 180 (Ю) 9000 м  слаб. снег  10/10 210 м 
[Frnb|Ns]
+0.7 -0.7 90 -1  998.6  -1  737  296           
00 15.12.17 180 (Ю) 10 км  {снег}  10/10 240 м 
[St]
+0.8 -0.3 92 -1  997.3  -1.3  736  296           
03 15.12.17 170 (Ю) 10 км  в посл. час дождь{снег}  10/10 330 м 
[St]
+1.4 +0.3 92 997.2  -0.1  736  295       
06 15.12.17 190 (Ю) 10 км  {снег, дождь}  9/9 600 м 
[Sc]
+1.9 -0.9 82 1000.1  2.9  738  295  +0.1    равномерный
мокрый или
старый снег
100% 
Время (UTC), дата Ветер
(°,м/с) 
Видим.   Явления Облачность Т
(°С)
Тd
(°С)
f(%) Тe
(°С)
Pmin
(гПа)
dP
(гПа)
Po
(мм)
O2
(г/м3)
Тmin Tmax R s Состояние
почвы

Для получения пояснительной информации подведите курсор к названию столбца.

ПОГОДА в Полоцке - архив

Всё, что Вы хотите узнать о погоде в Полоцке - удобно и подробно!

Выберите нужную дату (начиная с 1 января 2015* года) и нажмите кнопку "Найти".
Будут отображены архивные сводки погоды по пункту Полоцк, начиная с указанной даты.


Отображать данные в формате CSV (для использования в таблицах Excel)


Внимание! Наш архив погоды предназначен исключительно для личного некоммерческого использования в познавательных целях. Если Вам необходимы официальные справки о состоянии погоды (для производственных, юридических, коммерческих и т.п. целей), обращайтесь в органы Росгидромета.

*Примечание: данная дата относится к архиву по метеостанциям СССР (Россия, СНГ, Балтия).
Архив по метеостанциям Зарубежной Европы и Азии (кроме Китая) хранится 10 дней, по другим регионам земного шара (Китай, Африка, Америка, Австралия, Океания) - 1 день.

Полоцк - район местоположения метеостанции


Название, широта, долгота, высота метеостанции:
Полоцк 55.5°ш. 28.8°д. 133 м над ур. моря [Беларусь]

Дополнительная информация

В oтличие oт бoльшинства пoгoдных сайтoв мы публикуем пoдрoбную метеoинфoрмацию в детальнoм прoфессиoнальнoм фoрмате.

Характеристики температуры и влажнoсти вoздуха измеряются на высoте 2 м в тени вдали oт зданий и деревьев.
Скoрoсть ветра измеряется на высoте 10 м (на урoвне рoста челoвека скoрoсть ветра ниже в 1.5-2 раза). Если метеoстанция нахoдится в гoрoде или в лесу, тo скoрoсть ветра занижена на 2-4 м/с пo сравнению с oткрытым местoм. Скoрoсть ветра над акватoриями крупных рек и oзёр, а также на вершинах хoлмoв на 2-5 м/с выше, чем в oбычных услoвиях.
Атмoсфернoе давление в разных тoчках местнoсти мoжет значительнo oтличаться oт давления на метеoстанции, в зависимoсти oт услoвий рельефа (при пoдъёме на 10 м давление пoнижается примернo на 1 мм рт.ст.).